User: anonymous   Login
Location: Peebles
(55.6412°N, 3.1714°W)
Time: 02:09:28
(UTC+00:00)
Language:

Cosmos 1238 Rocket - Orbit

View from above orbital plane
View from above orbital plane
View from above satellite
View from above satellite

Ground track
Ground track

The orbit data is extracted from the following two-line orbital elements,

1 12139U 81003B   21333.41816261  .00005774  00000-0  26999-3 0  9990
2 12139  82.9511 228.0624 0452181 328.4494  29.0293 14.59563532 83697
Epoch (UTC): 29 November 2021 10:02:09
Eccentricity: 0.0452181
inclination: 82.9511°
perigee height: 375 km
apogee height: 1014 km
right ascension of ascending node: 228.0624°
argument of perigee: 328.4494°
revolutions per day: 14.59563532
mean anomaly at epoch: 29.0293°
orbit number at epoch: 8369

The dashed part of the orbit path shows where the satellite is in the earth's shadow,  

DLR